[[{"header":{"parameterUnit":"m.s-1","parameterCategory":2,"la1":30.2991,"la2":30.254,"lo1":-89.0895,"lo2":-89.0444,"dy":0.0017,"dx":0.0017,"nx":28,"ny":28,"refTime":"2025-04-03T09:00:00:Z","depth":"0","parameterNumber":2,"parameterNumberName":"U-component_of_CURRENTS"},"data":[0,0,0,0,0,0,0,0,0,0,0,0,0,0,0,0,0,0,0,0,0,0,0,0,0,0,0,0,0,0,0,0,0,0,0,0,0,0,0,0,0,0,0,0,0,0,0,0,0,0,0,0,0,0,0,0,0,0,-0.2191,-0.2192,0,-0.2226,-0.2226,-0.2226,-0.2195,-0.2194,-0.2193,-0.2191,-0.2159,-0.2159,-0.2159,0,0,0,0,0,0,0,0,0,0,0,0,0,-0.2119,-0.212,-0.2191,-0.2192,-0.2192,-0.2226,-0.2226,-0.2226,-0.2195,-0.2194,-0.2192,-0.2191,-0.2159,-0.2159,-0.2159,0,0,0,0,0,0,0,0,0,0,0,0,0,-0.215,-0.2121,-0.2191,-0.2182,-0.2181,-0.2226,-0.2226,-0.2226,-0.2195,-0.2194,-0.2192,-0.219,-0.2159,-0.2159,-0.2159,-0.2195,0,0,-0.216,-0.216,0,0,0,0,0,0,0,0,-0.2148,-0.2153,-0.2182,-0.2182,-0.2182,-0.2206,-0.2189,-0.2213,-0.2196,-0.2188,-0.2191,-0.2189,-0.2171,-0.217,-0.2179,-0.2194,-0.2192,-0.216,-0.216,-0.216,-0.2161,0,0,0,0,0,0,0,-0.2146,-0.2151,-0.2203,-0.2183,-0.2183,-0.2183,-0.2185,-0.2194,-0.2186,-0.2189,-0.2187,-0.2194,-0.2169,-0.2179,-0.2178,-0.2192,-0.216,-0.216,-0.2161,-0.2161,-0.2258,-0.2261,0,0,0,0,0,0,-0.2146,-0.2149,-0.2202,-0.2204,-0.2162,-0.2186,-0.2188,-0.2198,-0.2187,-0.2185,-0.2195,-0.2192,-0.2179,-0.2177,-0.2176,-0.2227,-0.216,-0.2161,-0.2161,-0.2256,-0.2259,-0.2262,0,0,0,0,0,0,-0.2145,-0.2151,-0.2201,-0.2178,-0.2185,-0.2189,-0.2201,-0.22,-0.2202,-0.2193,-0.2189,-0.2196,-0.2178,-0.2176,-0.2198,-0.2225,-0.2161,-0.2161,-0.2253,-0.2257,-0.226,-0.2323,0,0,0,0,0,0,-0.2142,-0.215,-0.2154,-0.2179,-0.2186,-0.2234,-0.2203,-0.2202,-0.221,-0.2206,-0.2193,-0.2189,-0.2176,-0.2198,-0.2198,-0.2224,-0.2161,-0.225,-0.2255,-0.2259,-0.2318,-0.2328,-0.2337,0,0,0,0,0,-0.214,-0.2159,-0.2154,-0.216,-0.2192,-0.2235,-0.224,-0.2235,-0.2211,-0.2226,-0.2222,-0.2189,-0.2227,-0.22,-0.22,-0.2226,-0.2248,-0.2254,-0.2259,-0.2313,-0.2326,-0.2337,0,0,0,0,0,0,-0.2127,-0.2158,-0.2153,-0.2178,-0.2206,-0.223,-0.2242,-0.2239,-0.2249,-0.2238,-0.2219,-0.2216,-0.2247,-0.2237,-0.2208,-0.2272,-0.2233,-0.2239,-0.2275,-0.2286,-0.2296,-0.2281,-0.2162,0,0,0,0,0,-0.2128,-0.2146,-0.2179,-0.2197,-0.2212,-0.2225,-0.2238,-0.2241,-0.2256,-0.2257,-0.2252,-0.2255,-0.2275,-0.2277,-0.2291,-0.2324,-0.2275,-0.2344,-0.2354,-0.2362,-0.2353,-0.2305,-0.2308,-0.228,-0.2279,-0.2279,0,0,-0.2126,-0.2145,-0.2154,-0.2195,-0.221,-0.2256,-0.2228,-0.2257,-0.2291,-0.2253,-0.2288,-0.2287,-0.2293,-0.2334,-0.2346,-0.2323,-0.2349,-0.2369,-0.2375,-0.2362,-0.2311,-0.2313,-0.2315,-0.2283,-0.2283,-0.2282,0,0,-0.2148,-0.2152,-0.2183,-0.2215,-0.2251,-0.227,-0.2279,-0.2311,-0.2317,-0.2361,-0.2345,-0.2357,-0.2388,-0.2395,-0.2403,-0.2476,-0.2404,-0.2488,-0.2518,-0.2473,-0.2473,-0.2473,-0.2422,-0.2416,-0.2489,-0.2489,-0.2489,0,-0.2143,-0.2187,-0.2199,-0.2248,-0.2272,-0.228,-0.2326,-0.2353,-0.2386,-0.2388,-0.2379,-0.2411,-0.2417,-0.2451,-0.2487,-0.2494,-0.245,-0.2469,-0.248,-0.2479,-0.2477,-0.2425,-0.2418,-0.2493,-0.2492,-0.2492,-0.2492,0,-0.22,-0.2235,-0.2258,-0.2319,-0.2351,-0.239,-0.2432,-0.2453,-0.2456,-0.2469,-0.2492,-0.2501,-0.2505,-0.2529,-0.2535,-0.2545,-0.2512,-0.2495,-0.2439,-0.2483,-0.2426,-0.2418,-0.2498,-0.2497,-0.2496,-0.2495,0,0,-0.2181,-0.2278,-0.2283,-0.2315,-0.2387,-0.2415,-0.2476,-0.2517,-0.2526,-0.2555,-0.2556,-0.2612,-0.258,-0.2589,-0.2587,-0.2566,-0.2538,-0.2535,-0.2531,-0.2463,-0.2424,-0.2368,-0.2353,-0.2512,-0.2511,-0.2511,-0.2389,0,-0.2215,-0.2304,-0.2349,-0.2423,-0.2467,-0.2497,-0.2546,-0.258,-0.2593,-0.2599,-0.2596,-0.2604,-0.2615,-0.2605,-0.2592,-0.2549,-0.2518,-0.2572,-0.2408,-0.2404,-0.2331,-0.2343,-0.2279,-0.2161,-0.238,-0.2379,-0.2378,0,-0.2251,-0.2304,-0.2383,-0.2457,-0.2476,-0.2521,-0.2556,-0.2603,-0.2622,-0.2624,-0.262,-0.2608,-0.2602,-0.2592,-0.252,-0.2548,-0.2494,-0.2456,-0.245,-0.2364,-0.2332,-0.2154,-0.2137,-0.2134,-0.2364,-0.2365,-0.2366,0,-0.2212,-0.2319,-0.2372,-0.2404,-0.2498,-0.2519,-0.2557,-0.2594,-0.2608,-0.2621,-0.2607,-0.2598,-0.2562,-0.2513,-0.2455,-0.2475,-0.2348,-0.2356,-0.2251,-0.2246,-0.2142,-0.2129,-0.208,-0.2285,-0.2285,-0.2285,-0.2286,0,-0.2222,-0.2259,-0.2353,-0.2382,-0.2418,-0.2492,-0.2514,-0.2549,-0.2574,-0.2567,-0.2599,-0.2569,-0.2536,-0.2469,-0.2429,-0.2305,-0.2315,-0.2245,-0.2207,-0.2166,-0.2157,-0.2109,-0.2129,-0.2281,-0.2282,-0.2283,-0.2283,0,-0.2165,-0.2238,-0.2292,-0.2382,-0.2402,-0.2419,-0.2477,-0.2484,-0.2528,-0.2512,-0.251,-0.2513,-0.243,-0.2386,-0.2284,-0.2242,-0.2112,-0.2104,-0.2059,-0.202,-0.1932,-0.1958,-0.1838,-0.1786,-0.1967,-0.1964,-0.1963,0,-0.2143,-0.2169,-0.2255,-0.2265,-0.2301,-0.234,-0.2356,-0.2435,-0.2441,-0.2466,-0.2439,-0.2385,-0.2311,-0.216,-0.2085,-0.1974,-0.1996,-0.1862,-0.1901,-0.1907,-0.1909,-0.1933,-0.1901,-0.1788,-0.1785,-0.1783,-0.1781,0,-0.2075,-0.2103,-0.2137,-0.2168,-0.2191,-0.2216,-0.2251,-0.2254,-0.2327,-0.2319,-0.2278,-0.2225,-0.2109,-0.197,-0.1857,-0.1797,-0.1832,-0.1806,-0.1816,-0.1765,-0.1782,-0.172,-0.1897,-0.1758,-0.176,-0.1762,-0.1763,-0.1764,-0.199,-0.1989,-0.2027,-0.204,-0.2065,-0.2064,-0.2032,-0.2076,-0.2065,-0.2021,-0.2076,-0.1962,-0.1907,-0.1736,-0.1678,-0.159,-0.1633,-0.1568,-0.1596,-0.1618,-0.158,-0.171,-0.1535,-0.1536,-0.1537,-0.1538,-0.1538,0,-0.1873,-0.1881,-0.1891,-0.19,-0.1865,-0.1927,-0.1927,-0.1862,-0.1797,-0.1806,-0.1751,-0.1679,-0.1575,-0.1545,-0.1476,-0.1413,-0.1395,-0.1397,-0.143,-0.1403,-0.1505,-0.1512,-0.132,-0.132,-0.132,-0.132,-0.132,-0.132,-0.181,-0.1775,-0.1784,-0.1689,-0.1682,-0.1586,-0.155,-0.148,-0.1449,-0.1338,-0.1303,-0.1293,-0.1339,-0.1476,-0.1417,-0.1358,-0.134,-0.1297,-0.1312,-0.1423,-0.1443,-0.1461,-0.1473,-0.1277,-0.1277,-0.1173,-0.1173,-0.1172]},{"header":{"parameterUnit":"m.s-1","parameterCategory":2,"la1":30.2991,"la2":30.254,"lo1":-89.0895,"lo2":-89.0444,"dy":0.0017,"dx":0.0017,"nx":28,"ny":28,"refTime":"2025-04-03T09:00:00:Z","depth":"0","parameterNumber":3,"parameterNumberName":"V-component_of_CURRENTS"},"data":[0,0,0,0,0,0,0,0,0,0,0,0,0,0,0,0,0,0,0,0,0,0,0,0,0,0,0,0,0,0,0,0,0,0,0,0,0,0,0,0,0,0,0,0,0,0,0,0,0,0,0,0,0,0,0,0,0,0,-0.0187,-0.0186,0,-0.0102,-0.0101,-0.01,-0.0048,-0.0048,-0.0048,-0.0048,0.0068,0.0071,0.0074,0,0,0,0,0,0,0,0,0,0,0,0,0,-0.0243,-0.0243,-0.0187,-0.0186,-0.0185,-0.0103,-0.0101,-0.01,-0.0048,-0.0048,-0.0048,-0.0048,0.0067,0.007,0.0074,0,0,0,0,0,0,0,0,0,0,0,0,0,-0.0194,-0.0243,-0.0188,-0.015,-0.0146,-0.0103,-0.0101,-0.01,-0.0048,-0.0048,-0.0048,-0.0047,0.0066,0.007,0.0074,0.0096,0,0,0.0088,0.009,0,0,0,0,0,0,0,0,-0.0197,-0.0192,-0.0157,-0.0153,-0.0148,-0.0087,-0.0079,-0.0033,-0.0048,-0.0084,-0.0048,-0.0047,0.0018,0.0026,0.0043,0.0102,0.0107,0.0088,0.0091,0.0093,0.0094,0,0,0,0,0,0,0,-0.02,-0.0195,-0.0153,-0.0156,-0.0151,-0.0117,-0.011,-0.0069,-0.0034,-0.0081,-0.0077,-0.007,0.0021,0.0039,0.0046,0.0108,0.0088,0.0092,0.0095,0.0096,0.0229,0.023,0,0,0,0,0,0,-0.0217,-0.0199,-0.0155,-0.015,-0.0174,-0.0117,-0.0109,-0.0106,-0.0035,-0.0025,-0.007,-0.0068,0.0031,0.0041,0.005,0.0103,0.0093,0.0097,0.0099,0.0228,0.0229,0.023,0,0,0,0,0,0,-0.0218,-0.0214,-0.0159,-0.0173,-0.0164,-0.0116,-0.0113,-0.0104,-0.0087,-0.0027,-0.0016,-0.0063,0.0032,0.0044,0.0093,0.0107,0.0099,0.0103,0.0227,0.0228,0.023,0.0194,0,0,0,0,0,0,-0.022,-0.0215,-0.022,-0.0174,-0.0164,-0.0138,-0.0113,-0.0103,-0.0083,-0.008,-0.0017,-0.0006,0.0033,0.0086,0.0097,0.0113,0.0106,0.0226,0.0228,0.0229,0.0194,0.0194,0.0193,0,0,0,0,0,-0.0223,-0.0232,-0.0221,-0.0215,-0.0171,-0.0139,-0.013,-0.0094,-0.0084,-0.0078,-0.003,-0.0008,0.0105,0.009,0.0103,0.012,0.0225,0.0227,0.0229,0.0194,0.0194,0.0193,0,0,0,0,0,0,-0.0259,-0.0226,-0.0213,-0.0212,-0.018,-0.0131,-0.0124,-0.01,-0.0058,-0.0055,0.0001,0.0016,0.0065,0.0097,0.0079,0.0165,0.017,0.0174,0.0138,0.0139,0.0139,0.0125,0.011,0,0,0,0,0,-0.0271,-0.027,-0.0229,-0.0229,-0.0217,-0.0172,-0.0156,-0.0131,-0.0089,-0.0071,-0.0025,0.0029,0.0084,0.0112,0.016,0.0203,0.0234,0.0225,0.0225,0.0224,0.0223,0.0291,0.0296,0.0237,0.0237,0.0237,0,0,-0.0284,-0.0267,-0.0266,-0.0236,-0.021,-0.0194,-0.0161,-0.0142,-0.012,-0.0064,-0.0024,0.0026,0.0095,0.0147,0.0172,0.0175,0.0255,0.0227,0.0226,0.0225,0.0293,0.0299,0.0304,0.0238,0.0238,0.0238,0,0,-0.0315,-0.0297,-0.0307,-0.0284,-0.0251,-0.0217,-0.0215,-0.0167,-0.0138,-0.0094,-0.0041,0.0019,0.0088,0.0151,0.019,0.0218,0.0249,0.023,0.0222,0.0287,0.0293,0.0297,0.0326,0.0334,0.0232,0.0232,0.0232,0,-0.0334,-0.0339,-0.0304,-0.0304,-0.0286,-0.0232,-0.023,-0.0189,-0.0129,-0.0097,-0.0089,0.0042,0.0095,0.0181,0.0193,0.0218,0.0244,0.0213,0.0286,0.0292,0.0297,0.0326,0.0335,0.0231,0.0231,0.0231,0.0231,0,-0.0369,-0.0368,-0.0371,-0.035,-0.0324,-0.0315,-0.0255,-0.0221,-0.018,-0.0131,-0.005,0.003,0.0109,0.014,0.0176,0.0251,0.025,0.0273,0.028,0.0301,0.033,0.034,0.0229,0.0229,0.023,0.023,0,0,-0.0419,-0.0401,-0.0402,-0.0399,-0.0349,-0.0332,-0.0287,-0.0225,-0.0193,-0.0121,-0.0068,0.004,0.0085,0.0132,0.0193,0.0254,0.0314,0.0273,0.0277,0.029,0.043,0.0452,0.0465,0.0346,0.0348,0.035,0.0426,0,-0.0455,-0.0479,-0.0444,-0.0444,-0.0447,-0.0375,-0.0337,-0.027,-0.0204,-0.0138,-0.0033,0.0033,0.0083,0.0118,0.0192,0.0286,0.0341,0.0289,0.0418,0.0421,0.043,0.0479,0.0527,0.0602,0.0436,0.0438,0.0439,0,-0.0499,-0.0508,-0.0529,-0.0494,-0.0485,-0.0469,-0.0393,-0.0349,-0.0235,-0.0182,-0.0087,-0.0012,0.0101,0.0129,0.0301,0.0261,0.0339,0.0407,0.0412,0.0454,0.0464,0.0561,0.0627,0.0757,0.0455,0.0454,0.0453,0,-0.0565,-0.0558,-0.0579,-0.0571,-0.0524,-0.0507,-0.0469,-0.037,-0.0326,-0.0214,-0.0172,-0.0031,0.0039,0.0165,0.0313,0.0305,0.0488,0.0498,0.0589,0.0589,0.0669,0.0673,0.087,0.0613,0.0613,0.0612,0.0612,0,-0.0621,-0.0632,-0.0618,-0.0631,-0.0638,-0.0575,-0.055,-0.0487,-0.0391,-0.0332,-0.0207,-0.0129,0.0052,0.0183,0.0306,0.0483,0.0488,0.0597,0.0625,0.0655,0.0658,0.0804,0.0834,0.0615,0.0615,0.0614,0.0614,0,-0.069,-0.0682,-0.0706,-0.0683,-0.0677,-0.0682,-0.0622,-0.0594,-0.0496,-0.0416,-0.0385,-0.0199,-0.0019,0.0156,0.0367,0.0473,0.0715,0.0689,0.0693,0.0721,0.0915,0.0939,0.1123,0.1198,0.08,0.0801,0.0802,0,-0.0729,-0.0754,-0.0766,-0.0785,-0.0781,-0.0774,-0.0761,-0.0666,-0.0623,-0.0446,-0.0408,-0.022,-0.0048,0.026,0.0475,0.0693,0.0785,0.0843,0.0851,0.0949,0.0997,0.1005,0.1054,0.0932,0.0934,0.0936,0.0937,0,-0.0797,-0.0804,-0.0826,-0.0879,-0.0889,-0.0883,-0.0851,-0.083,-0.0693,-0.0586,-0.0405,-0.0254,0.0061,0.0361,0.0629,0.076,0.0938,0.0882,0.1013,0.1144,0.1141,0.1217,0.0824,0.0952,0.095,0.0949,0.0949,0.0948,-0.0839,-0.088,-0.0917,-0.0958,-0.0975,-0.0973,-0.0951,-0.0873,-0.0772,-0.0553,-0.0413,-0.0097,0.028,0.0689,0.0821,0.1122,0.1068,0.1224,0.1249,0.125,0.1325,0.0939,0.108,0.108,0.1079,0.1079,0.1078,0,-0.0889,-0.093,-0.0985,-0.1027,-0.1054,-0.1038,-0.0987,-0.0905,-0.0761,-0.0503,-0.0273,0.0256,0.0633,0.0962,0.135,0.1498,0.1523,0.1569,0.1617,0.1655,0.136,0.137,0.1548,0.1548,0.1548,0.1548,0.1547,0.1547,-0.0915,-0.0986,-0.1017,-0.1079,-0.1099,-0.1078,-0.1036,-0.0869,-0.0655,-0.0214,0.016,0.0446,0.0887,0.1469,0.1825,0.1848,0.1975,0.1944,0.2003,0.1823,0.1794,0.1765,0.1788,0.205,0.2051,0.2314,0.2317,0.2319]}],[{"header":{"parameterUnit":"m.s-1","parameterCategory":2,"la1":30.2991,"la2":30.254,"lo1":-89.0895,"lo2":-89.0444,"dy":0.0017,"dx":0.0017,"nx":28,"ny":28,"refTime":"2025-04-03T09:00:00:Z","depth":"2","parameterNumber":2,"parameterNumberName":"U-component_of_CURRENTS"},"data":[0,0,0,0,0,0,0,0,0,0,0,0,0,0,0,0,0,0,0,0,0,0,0,0,0,0,0,0,0,0,0,0,0,0,0,0,0,0,0,0,0,0,0,0,0,0,0,0,0,0,0,0,0,0,0,0,0,0,-0.2062,-0.2062,0,-0.2091,-0.2092,-0.2092,-0.2066,-0.2065,-0.2064,-0.2063,-0.2033,-0.2033,-0.2033,0,0,0,0,0,0,0,0,0,0,0,0,0,-0.1999,-0.2,-0.2062,-0.2062,-0.2063,-0.2091,-0.2092,-0.2092,-0.2066,-0.2065,-0.2064,-0.2063,-0.2033,-0.2033,-0.2033,0,0,0,0,0,0,0,0,0,0,0,0,0,-0.2026,-0.2001,-0.2062,-0.2055,-0.2054,-0.2091,-0.2092,-0.2092,-0.2066,-0.2065,-0.2064,-0.2062,-0.2033,-0.2033,-0.2033,-0.2061,0,0,-0.2033,-0.2033,0,0,0,0,0,0,0,0,-0.2024,-0.2028,-0.2055,-0.2055,-0.2055,-0.2075,-0.2058,-0.2079,-0.2067,-0.206,-0.2063,-0.2062,-0.2043,-0.2042,-0.205,-0.2059,-0.2058,-0.2033,-0.2033,-0.2033,-0.2033,0,0,0,0,0,0,0,-0.2023,-0.2027,-0.2072,-0.2056,-0.2056,-0.2056,-0.2058,-0.2062,-0.2057,-0.2061,-0.2059,-0.2065,-0.2042,-0.205,-0.2049,-0.2057,-0.2033,-0.2033,-0.2033,-0.2033,-0.2117,-0.2119,0,0,0,0,0,0,-0.2023,-0.2025,-0.2071,-0.2073,-0.2038,-0.2058,-0.206,-0.2069,-0.2058,-0.2056,-0.2067,-0.2064,-0.205,-0.2049,-0.2047,-0.2096,-0.2033,-0.2033,-0.2033,-0.2115,-0.2118,-0.212,0,0,0,0,0,0,-0.2022,-0.2027,-0.207,-0.2051,-0.2056,-0.206,-0.207,-0.207,-0.2073,-0.2064,-0.206,-0.207,-0.2049,-0.2047,-0.2066,-0.2093,-0.2033,-0.2033,-0.2112,-0.2116,-0.2119,-0.2182,0,0,0,0,0,0,-0.202,-0.2026,-0.203,-0.2051,-0.2057,-0.2099,-0.2072,-0.2072,-0.208,-0.2077,-0.2065,-0.2061,-0.2048,-0.2066,-0.2066,-0.2092,-0.2033,-0.211,-0.2114,-0.2118,-0.2177,-0.2187,-0.2195,0,0,0,0,0,-0.2018,-0.2034,-0.203,-0.2035,-0.2063,-0.21,-0.2104,-0.21,-0.2082,-0.2095,-0.2091,-0.2061,-0.2092,-0.2068,-0.2067,-0.2094,-0.2108,-0.2113,-0.2118,-0.2173,-0.2185,-0.2195,0,0,0,0,0,0,-0.2007,-0.2034,-0.203,-0.2052,-0.2075,-0.2096,-0.2107,-0.2105,-0.2114,-0.2105,-0.2087,-0.2085,-0.2113,-0.2102,-0.2075,-0.2134,-0.2096,-0.2101,-0.2139,-0.215,-0.2159,-0.2146,-0.2033,0,0,0,0,0,-0.2008,-0.2024,-0.2052,-0.2067,-0.2081,-0.2093,-0.2104,-0.2108,-0.2121,-0.2122,-0.2118,-0.212,-0.2137,-0.2139,-0.215,-0.2179,-0.2134,-0.2199,-0.2208,-0.2215,-0.2208,-0.2165,-0.2169,-0.2136,-0.2136,-0.2136,0,0,-0.2006,-0.2023,-0.2031,-0.2066,-0.208,-0.2118,-0.2096,-0.2122,-0.2152,-0.2118,-0.215,-0.215,-0.2153,-0.219,-0.2201,-0.2179,-0.2205,-0.2222,-0.2228,-0.2216,-0.2171,-0.2173,-0.2175,-0.214,-0.2139,-0.2139,0,0,-0.2025,-0.2029,-0.2055,-0.2083,-0.2115,-0.2131,-0.2141,-0.217,-0.2177,-0.2215,-0.2202,-0.2215,-0.2242,-0.2247,-0.2254,-0.2321,-0.2257,-0.2333,-0.2364,-0.2324,-0.2325,-0.2325,-0.2278,-0.2273,-0.2335,-0.2335,-0.2335,0,-0.2021,-0.2056,-0.2069,-0.211,-0.2131,-0.214,-0.2179,-0.2204,-0.2234,-0.2238,-0.2233,-0.2264,-0.2268,-0.2299,-0.2334,-0.2338,-0.2299,-0.2318,-0.2331,-0.2331,-0.233,-0.2281,-0.2275,-0.2339,-0.2338,-0.2338,-0.2337,0,-0.2067,-0.2096,-0.2116,-0.2167,-0.2196,-0.2229,-0.2268,-0.2289,-0.2296,-0.2309,-0.2335,-0.2344,-0.235,-0.2373,-0.2379,-0.2391,-0.2361,-0.2345,-0.2293,-0.2336,-0.2283,-0.2276,-0.2344,-0.2342,-0.2341,-0.2341,0,0,-0.2049,-0.2131,-0.2135,-0.2162,-0.2225,-0.225,-0.2304,-0.2342,-0.2352,-0.2383,-0.2389,-0.2441,-0.242,-0.2428,-0.2429,-0.2412,-0.2391,-0.2386,-0.2382,-0.2321,-0.2291,-0.2233,-0.2219,-0.2371,-0.237,-0.2369,-0.2257,0,-0.2074,-0.2147,-0.2186,-0.2248,-0.2284,-0.2315,-0.2359,-0.2393,-0.2409,-0.2421,-0.2424,-0.2438,-0.245,-0.2448,-0.2438,-0.2401,-0.2374,-0.2422,-0.2274,-0.2269,-0.2197,-0.2209,-0.2071,-0.1956,-0.2249,-0.2248,-0.2247,0,-0.21,-0.2143,-0.2209,-0.2273,-0.229,-0.2332,-0.2368,-0.2411,-0.2437,-0.2445,-0.2449,-0.2444,-0.2445,-0.2439,-0.2377,-0.2405,-0.2356,-0.2322,-0.2316,-0.2229,-0.2197,-0.1962,-0.1931,-0.2234,-0.2235,-0.2236,-0.2237,0,-0.206,-0.2151,-0.2194,-0.2222,-0.2305,-0.2328,-0.2366,-0.2406,-0.2422,-0.2446,-0.2439,-0.2438,-0.2414,-0.2371,-0.2321,-0.2341,-0.2226,-0.2234,-0.2131,-0.2125,-0.1961,-0.1943,-0.217,-0.217,-0.217,-0.2171,-0.2171,0,-0.2061,-0.2093,-0.2177,-0.2201,-0.2235,-0.2305,-0.2331,-0.2367,-0.24,-0.2399,-0.2436,-0.2414,-0.2393,-0.2333,-0.2298,-0.2182,-0.2196,-0.2125,-0.209,-0.1983,-0.1969,-0.2175,-0.2177,-0.2166,-0.2167,-0.2168,-0.2169,0,-0.2005,-0.207,-0.2115,-0.2198,-0.2219,-0.2238,-0.2301,-0.2311,-0.2361,-0.2355,-0.2358,-0.2367,-0.2294,-0.2256,-0.2166,-0.2125,-0.2042,-0.1994,-0.1872,-0.1825,-0.1975,-0.1983,-0.1867,-0.1864,-0.1861,-0.1859,-0.1857,0,-0.1982,-0.2002,-0.2081,-0.2093,-0.2128,-0.217,-0.2189,-0.227,-0.2279,-0.2313,-0.2292,-0.2248,-0.218,-0.204,-0.1959,-0.1852,-0.1934,-0.1679,-0.1705,-0.1965,-0.1943,-0.1954,-0.1965,-0.1509,-0.1505,-0.1501,-0.1498,0,-0.1913,-0.1942,-0.1971,-0.2002,-0.2029,-0.2055,-0.2094,-0.2099,-0.2176,-0.2172,-0.2139,-0.2091,-0.1976,-0.1799,-0.1687,-0.1621,-0.1695,-0.1601,-0.1866,-0.1626,-0.1624,-0.1604,-0.1626,-0.1465,-0.1469,-0.1471,-0.1473,-0.1474,-0.1835,-0.1832,-0.1868,-0.1882,-0.1911,-0.1914,-0.1887,-0.1929,-0.1922,-0.1874,-0.1931,-0.1793,-0.1757,-0.1493,-0.1407,-0.1344,-0.1462,-0.141,-0.1423,-0.1439,-0.1436,-0.1432,-0.1235,-0.1237,-0.1239,-0.124,-0.1241,0,-0.1723,-0.1731,-0.1741,-0.1751,-0.1721,-0.1786,-0.179,-0.172,-0.1655,-0.1643,-0.1582,-0.1369,-0.1256,-0.1222,-0.107,-0.1052,-0.1056,-0.1019,-0.1029,-0.1061,-0.109,-0.1072,-0.0773,-0.0772,-0.077,-0.0769,0,0,-0.1663,-0.1628,-0.1634,-0.1549,-0.1549,-0.1459,-0.1427,-0.1343,-0.1291,-0.1159,-0.1083,-0.1147,-0.1163,-0.0956,-0.0925,-0.0819,-0.0929,-0.0779,-0.1152,-0.1194,-0.1221,-0.1311,-0.1318,0,0,0,0,0]},{"header":{"parameterUnit":"m.s-1","parameterCategory":2,"la1":30.2991,"la2":30.254,"lo1":-89.0895,"lo2":-89.0444,"dy":0.0017,"dx":0.0017,"nx":28,"ny":28,"refTime":"2025-04-03T09:00:00:Z","depth":"2","parameterNumber":3,"parameterNumberName":"V-component_of_CURRENTS"},"data":[0,0,0,0,0,0,0,0,0,0,0,0,0,0,0,0,0,0,0,0,0,0,0,0,0,0,0,0,0,0,0,0,0,0,0,0,0,0,0,0,0,0,0,0,0,0,0,0,0,0,0,0,0,0,0,0,0,0,-0.0256,-0.0255,0,-0.0178,-0.0177,-0.0176,-0.0123,-0.0123,-0.0123,-0.0122,-0.0013,-0.001,-0.0008,0,0,0,0,0,0,0,0,0,0,0,0,0,-0.0308,-0.0308,-0.0256,-0.0255,-0.0254,-0.0178,-0.0177,-0.0176,-0.0123,-0.0123,-0.0123,-0.0122,-0.0014,-0.0011,-0.0008,0,0,0,0,0,0,0,0,0,0,0,0,0,-0.0263,-0.0308,-0.0256,-0.022,-0.0216,-0.0178,-0.0177,-0.0176,-0.0123,-0.0123,-0.0122,-0.0122,-0.0015,-0.0011,-0.0007,0.0008,0,0,0.0005,0.0007,0,0,0,0,0,0,0,0,-0.0266,-0.0261,-0.0226,-0.0222,-0.0218,-0.0161,-0.0155,-0.0113,-0.0123,-0.0157,-0.0122,-0.0122,-0.006,-0.0053,-0.0038,0.0013,0.0018,0.0005,0.0008,0.0009,0.001,0,0,0,0,0,0,0,-0.0269,-0.0264,-0.0224,-0.0225,-0.022,-0.0189,-0.0183,-0.0147,-0.0111,-0.0154,-0.0151,-0.0143,-0.0058,-0.0042,-0.0035,0.002,0.0005,0.0009,0.0011,0.0013,0.0119,0.0119,0,0,0,0,0,0,-0.0283,-0.0267,-0.0227,-0.0222,-0.0242,-0.0189,-0.0182,-0.0179,-0.0112,-0.0102,-0.0144,-0.0141,-0.0049,-0.004,-0.0031,0.0009,0.0009,0.0013,0.0015,0.0119,0.0119,0.012,0,0,0,0,0,0,-0.0285,-0.0281,-0.023,-0.0243,-0.0235,-0.0189,-0.0186,-0.0177,-0.0162,-0.0105,-0.0094,-0.0137,-0.0048,-0.0037,0.0004,0.0013,0.0015,0.0018,0.0118,0.0119,0.0119,0.0077,0,0,0,0,0,0,-0.0287,-0.0282,-0.0286,-0.0244,-0.0235,-0.0215,-0.0186,-0.0176,-0.0158,-0.0154,-0.0095,-0.0084,-0.0047,-0.0002,0.0008,0.0018,0.0021,0.0117,0.0118,0.0119,0.0078,0.0077,0.0075,0,0,0,0,0,-0.0289,-0.03,-0.0287,-0.0282,-0.0242,-0.0215,-0.0207,-0.0172,-0.0159,-0.0156,-0.0111,-0.0086,0.0011,0.0001,0.0013,0.0025,0.0117,0.0118,0.0119,0.0079,0.0077,0.0075,0,0,0,0,0,0,-0.0324,-0.0294,-0.028,-0.028,-0.0253,-0.0207,-0.0202,-0.0178,-0.0141,-0.0136,-0.0082,-0.0068,-0.0029,0.0003,-0.0009,0.0059,0.0069,0.0072,0.0034,0.0033,0.0031,0.002,0.0025,0,0,0,0,0,-0.0336,-0.0336,-0.0299,-0.0299,-0.0289,-0.0247,-0.0232,-0.0209,-0.017,-0.0154,-0.0111,-0.0062,-0.0015,0.0011,0.0051,0.0086,0.0121,0.0102,0.0101,0.0099,0.0099,0.0167,0.0172,0.0123,0.0123,0.0123,0,0,-0.0349,-0.0333,-0.0333,-0.0307,-0.0283,-0.0274,-0.0237,-0.0221,-0.0206,-0.0148,-0.0117,-0.0069,-0.0008,0.0033,0.0054,0.0061,0.0128,0.0101,0.0099,0.0099,0.0169,0.0173,0.0178,0.0124,0.0124,0.0123,0,0,-0.0382,-0.0363,-0.0377,-0.0357,-0.0329,-0.0298,-0.0297,-0.0253,-0.0227,-0.0192,-0.0142,-0.0088,-0.0029,0.0026,0.006,0.0075,0.0115,0.0085,0.0074,0.0139,0.0144,0.0148,0.0181,0.0189,0.0088,0.0088,0.0088,0,-0.0401,-0.041,-0.0375,-0.0381,-0.0367,-0.0314,-0.0319,-0.0284,-0.0231,-0.0202,-0.0191,-0.0076,-0.0028,0.0043,0.005,0.0072,0.0103,0.0073,0.0137,0.0142,0.0148,0.0181,0.019,0.0086,0.0086,0.0086,0.0087,0,-0.0443,-0.0445,-0.0451,-0.0438,-0.0417,-0.0412,-0.0361,-0.0332,-0.0293,-0.0249,-0.0178,-0.0104,-0.0032,-0.0007,0.0027,0.0093,0.0099,0.0123,0.0138,0.015,0.0184,0.0194,0.0083,0.0084,0.0085,0.0085,0,0,-0.0491,-0.0484,-0.0485,-0.0487,-0.0446,-0.0434,-0.0402,-0.0351,-0.0321,-0.0258,-0.021,-0.0119,-0.007,-0.0028,0.003,0.009,0.015,0.0116,0.0121,0.0142,0.0273,0.0293,0.0306,0.0185,0.0187,0.0189,0.0275,0,-0.0533,-0.0567,-0.0538,-0.0548,-0.0557,-0.0491,-0.0463,-0.0406,-0.0344,-0.0284,-0.0187,-0.0125,-0.0079,-0.0042,0.0027,0.0123,0.0178,0.0123,0.0265,0.0269,0.028,0.032,0.0272,0.0347,0.0285,0.0287,0.0288,0,-0.0583,-0.0597,-0.0628,-0.0603,-0.0597,-0.0587,-0.0521,-0.0487,-0.0382,-0.0331,-0.0242,-0.0168,-0.0063,-0.0033,0.0136,0.0097,0.0178,0.0247,0.0252,0.0295,0.031,0.0331,0.0368,0.0306,0.0304,0.0303,0.0302,0,-0.0646,-0.0652,-0.068,-0.0675,-0.0641,-0.0628,-0.0595,-0.0506,-0.0466,-0.036,-0.0316,-0.0185,-0.0112,0.0011,0.0158,0.0149,0.0335,0.0343,0.0434,0.0434,0.0435,0.0433,0.0457,0.0457,0.0456,0.0456,0.0456,0,-0.0705,-0.0722,-0.0715,-0.0732,-0.0744,-0.069,-0.0669,-0.0612,-0.0522,-0.0465,-0.0348,-0.027,-0.0095,0.0036,0.0154,0.033,0.0338,0.0441,0.0471,0.0417,0.0413,0.0412,0.0405,0.0459,0.0459,0.0458,0.0457,0,-0.0772,-0.077,-0.08,-0.0786,-0.0781,-0.0788,-0.0733,-0.0707,-0.0614,-0.0534,-0.0503,-0.0325,-0.0146,0.0022,0.0231,0.033,0.0487,0.0542,0.0451,0.047,0.0535,0.0525,0.0649,0.0651,0.0652,0.0653,0.0654,0,-0.081,-0.0839,-0.0856,-0.0876,-0.0874,-0.087,-0.0858,-0.0771,-0.0729,-0.0557,-0.0519,-0.0332,-0.0168,0.0135,0.0326,0.0533,0.0539,0.06,0.0586,0.0544,0.0561,0.0549,0.0538,0.0558,0.0558,0.0558,0.0558,0,-0.0877,-0.0884,-0.091,-0.0961,-0.0972,-0.0969,-0.0939,-0.0918,-0.0789,-0.0684,-0.0509,-0.0363,-0.0069,0.0167,0.042,0.0531,0.0562,0.061,0.0619,0.0516,0.0466,0.048,0.0471,0.0559,0.0559,0.0559,0.0559,0.0559,-0.0916,-0.0956,-0.0994,-0.1034,-0.1051,-0.1049,-0.1029,-0.0957,-0.086,-0.0662,-0.0524,-0.0257,-0.0065,0.0323,0.0473,0.0609,0.0623,0.0648,0.0645,0.0642,0.0616,0.0572,0.0677,0.0678,0.0678,0.0679,0.0679,0,-0.0963,-0.1002,-0.1056,-0.1097,-0.1123,-0.1109,-0.1061,-0.0992,-0.0856,-0.0647,-0.0437,-0.0174,0.0094,0.03,0.0517,0.0644,0.0616,0.0652,0.0584,0.0583,0.0581,0.055,0.0595,0.0596,0.0596,0.0596,0,0,-0.0986,-0.1055,-0.1084,-0.1143,-0.1163,-0.1146,-0.1107,-0.097,-0.08,-0.0572,-0.0356,-0.0103,0.0141,0.0271,0.0406,0.0512,0.0514,0.0515,0.0568,0.0468,0.0465,0.0565,0.0513,0,0,0,0,0]}],[{"header":{"parameterUnit":"m.s-1","parameterCategory":2,"la1":30.2991,"la2":30.254,"lo1":-89.0895,"lo2":-89.0444,"dy":0.0017,"dx":0.0017,"nx":28,"ny":28,"refTime":"2025-04-03T09:00:00:Z","depth":"4","parameterNumber":2,"parameterNumberName":"U-component_of_CURRENTS"},"data":[0,0,0,0,0,0,0,0,0,0,0,0,0,0,0,0,0,0,0,0,0,0,0,0,0,0,0,0,0,0,0,0,0,0,0,0,0,0,0,0,0,0,0,0,0,0,0,0,0,0,0,0,0,0,0,0,0,0,-0.1402,-0.1402,0,-0.1446,-0.1446,-0.1447,-0.1472,-0.1472,-0.1472,-0.1472,-0.149,-0.1491,-0.1491,0,0,0,0,0,0,0,0,0,0,0,0,0,-0.134,-0.1341,-0.1402,-0.1402,-0.1403,-0.1446,-0.1446,-0.1447,-0.1472,-0.1472,-0.1472,-0.1472,-0.149,-0.1491,-0.1491,0,0,0,0,0,0,0,0,0,0,0,0,0,-0.1372,-0.1341,-0.1401,-0.1421,-0.1424,-0.1446,-0.1446,-0.1447,-0.1472,-0.1472,-0.1472,-0.1472,-0.149,-0.1491,-0.1491,-0.1488,0,0,-0.1492,-0.1493,0,0,0,0,0,0,0,0,-0.137,-0.1374,-0.1418,-0.142,-0.1423,-0.1455,-0.1431,-0.146,-0.1471,-0.1452,-0.1472,-0.1473,-0.1477,-0.1478,-0.1484,-0.1489,-0.149,-0.1492,-0.1493,-0.1493,-0.1493,0,0,0,0,0,0,0,-0.1368,-0.1373,-0.1418,-0.1418,-0.1421,-0.1428,-0.1433,-0.1437,-0.1461,-0.1454,-0.1456,-0.1463,-0.1478,-0.1484,-0.1485,-0.149,-0.1492,-0.1493,-0.1493,-0.1493,-0.1555,-0.1556,0,0,0,0,0,0,-0.1365,-0.1371,-0.1416,-0.1419,-0.1398,-0.1429,-0.1435,-0.1443,-0.1461,-0.1465,-0.1462,-0.1464,-0.1483,-0.1484,-0.1486,-0.154,-0.1493,-0.1493,-0.1494,-0.1553,-0.1555,-0.1556,0,0,0,0,0,0,-0.1363,-0.1369,-0.1415,-0.1397,-0.1403,-0.143,-0.1439,-0.1444,-0.1472,-0.1468,-0.1471,-0.1489,-0.1483,-0.1485,-0.1515,-0.1539,-0.1494,-0.1494,-0.1552,-0.1554,-0.1556,-0.1612,0,0,0,0,0,0,-0.1361,-0.1368,-0.1383,-0.1397,-0.1404,-0.1444,-0.1439,-0.1444,-0.1475,-0.1478,-0.1491,-0.1492,-0.1484,-0.1515,-0.1516,-0.1539,-0.1494,-0.155,-0.1553,-0.1555,-0.1609,-0.1616,-0.1622,0,0,0,0,0,-0.1359,-0.1376,-0.1383,-0.1389,-0.142,-0.1445,-0.145,-0.1469,-0.1476,-0.1495,-0.1509,-0.1493,-0.1531,-0.1517,-0.1517,-0.1541,-0.1549,-0.1552,-0.1555,-0.1606,-0.1614,-0.1622,0,0,0,0,0,0,-0.1358,-0.1381,-0.1389,-0.1413,-0.1435,-0.145,-0.1471,-0.1483,-0.1509,-0.1517,-0.1512,-0.1514,-0.1548,-0.1539,-0.1523,-0.1567,-0.1537,-0.154,-0.1575,-0.1584,-0.159,-0.1577,-0.1495,0,0,0,0,0,-0.1364,-0.1383,-0.1405,-0.1426,-0.1439,-0.146,-0.1476,-0.1491,-0.151,-0.1523,-0.1536,-0.1547,-0.1558,-0.1568,-0.1576,-0.16,-0.1573,-0.1616,-0.1622,-0.1628,-0.1619,-0.1602,-0.1606,-0.1566,-0.1566,-0.1566,0,0,-0.137,-0.1385,-0.1397,-0.1427,-0.1446,-0.1471,-0.1471,-0.1504,-0.1529,-0.1519,-0.1565,-0.1573,-0.1571,-0.1601,-0.1614,-0.1598,-0.1629,-0.1632,-0.1637,-0.1624,-0.1606,-0.1609,-0.1612,-0.1568,-0.1568,-0.1568,0,0,-0.1384,-0.1406,-0.1425,-0.1448,-0.1482,-0.1495,-0.151,-0.1543,-0.1564,-0.1605,-0.1603,-0.1624,-0.1652,-0.1649,-0.1649,-0.1696,-0.1666,-0.1711,-0.1734,-0.1719,-0.1721,-0.1723,-0.1704,-0.1703,-0.1713,-0.1714,-0.1714,0,-0.1392,-0.1414,-0.1436,-0.1461,-0.148,-0.1508,-0.1533,-0.156,-0.1601,-0.1613,-0.1629,-0.1663,-0.1668,-0.168,-0.1706,-0.1709,-0.1698,-0.1703,-0.1726,-0.1727,-0.1728,-0.1707,-0.1706,-0.1717,-0.1716,-0.1716,-0.1716,0,-0.141,-0.1439,-0.1455,-0.1492,-0.1519,-0.1547,-0.1582,-0.1616,-0.1647,-0.1664,-0.1701,-0.1713,-0.1727,-0.1741,-0.1743,-0.1757,-0.1747,-0.1736,-0.1701,-0.1735,-0.1712,-0.1709,-0.1721,-0.172,-0.1719,-0.1718,0,0,-0.1391,-0.1454,-0.1461,-0.1483,-0.1537,-0.1556,-0.1603,-0.1637,-0.1662,-0.1707,-0.1731,-0.1762,-0.177,-0.1771,-0.1777,-0.1773,-0.1782,-0.177,-0.1767,-0.1743,-0.1752,-0.164,-0.1626,-0.1782,-0.1782,-0.1782,-0.1737,0,-0.1396,-0.1439,-0.1474,-0.1519,-0.1541,-0.1585,-0.1624,-0.1663,-0.1698,-0.1734,-0.1746,-0.1777,-0.1782,-0.1801,-0.1798,-0.1788,-0.1778,-0.1795,-0.1729,-0.1726,-0.1616,-0.162,-0.1781,-0.1735,-0.1734,-0.1734,-0.1733,0,-0.1389,-0.142,-0.1465,-0.1525,-0.154,-0.158,-0.1632,-0.1674,-0.1723,-0.1752,-0.1778,-0.1795,-0.1808,-0.181,-0.1787,-0.1804,-0.1783,-0.1768,-0.1765,-0.1632,-0.1608,-0.1692,-0.1728,-0.1729,-0.1729,-0.173,-0.173,0,-0.1337,-0.1408,-0.1441,-0.1464,-0.1541,-0.1574,-0.162,-0.1677,-0.1709,-0.1768,-0.179,-0.1806,-0.1819,-0.18,-0.1775,-0.1791,-0.1734,-0.1744,-0.1615,-0.1607,-0.1698,-0.1696,-0.1712,-0.1712,-0.1712,-0.1712,-0.1712,0,-0.1304,-0.1333,-0.1427,-0.1443,-0.1487,-0.1557,-0.1608,-0.1654,-0.172,-0.1742,-0.1799,-0.1801,-0.182,-0.1794,-0.1771,-0.1671,-0.1724,-0.1605,-0.1581,-0.1726,-0.1728,-0.1696,-0.1695,-0.171,-0.1711,-0.1711,-0.1711,0,-0.1229,-0.1295,-0.1337,-0.143,-0.1463,-0.1497,-0.1598,-0.1626,-0.1705,-0.1736,-0.1757,-0.1798,-0.176,-0.1745,-0.1704,-0.1644,-0.1576,-0.1527,-0.1675,-0.1662,-0.1466,-0.1469,-0.1382,-0.1377,-0.1373,-0.137,-0.1368,0,-0.1189,-0.1206,-0.131,-0.1338,-0.1386,-0.1456,-0.1498,-0.1602,-0.1629,-0.1709,-0.1703,-0.1708,-0.1713,-0.1546,-0.1561,-0.148,-0.1463,-0.1425,-0.1452,-0.1443,-0.1429,-0.1438,-0.1446,-0.1362,-0.1361,-0.136,-0.1359,0,-0.1102,-0.1155,-0.1189,-0.1252,-0.1309,-0.1358,-0.143,-0.144,-0.1545,-0.1632,-0.1592,-0.1559,-0.1506,-0.1458,-0.1394,-0.1347,-0.1451,-0.1385,-0.1393,-0.1419,-0.1418,-0.141,-0.1422,-0.1345,-0.1347,-0.1348,-0.1349,0,-0.1035,-0.1041,-0.11,-0.1139,-0.1208,-0.123,-0.129,-0.1317,-0.1359,-0.1459,-0.1437,-0.1443,-0.1485,-0.1386,-0.1333,-0.1268,-0.1257,-0.1223,-0.124,-0.1255,-0.1232,-0.1213,-0.1041,0,0,0,0,0,-0.0955,-0.0949,-0.098,-0.102,-0.1085,-0.1122,-0.1223,-0.1288,-0.1394,-0.1324,-0.1378,-0.1324,-0.1251,-0.1258,-0.1159,-0.1275,-0.1262,-0.1157,-0.1232,-0.1272,-0.1287,-0.1272,0,0,0,0,0,0,-0.0903,-0.0923,-0.0935,-0.0908,-0.0911,-0.097,-0.1027,-0.1108,-0.1082,-0.1189,-0.1147,-0.123,-0.1168,-0.1261,-0.112,-0.1122,-0.1141,-0.1174,-0.1171,-0.1263,-0.1277,-0.1289,-0.1279,0,0,0,0,0]},{"header":{"parameterUnit":"m.s-1","parameterCategory":2,"la1":30.2991,"la2":30.254,"lo1":-89.0895,"lo2":-89.0444,"dy":0.0017,"dx":0.0017,"nx":28,"ny":28,"refTime":"2025-04-03T09:00:00:Z","depth":"4","parameterNumber":3,"parameterNumberName":"V-component_of_CURRENTS"},"data":[0,0,0,0,0,0,0,0,0,0,0,0,0,0,0,0,0,0,0,0,0,0,0,0,0,0,0,0,0,0,0,0,0,0,0,0,0,0,0,0,0,0,0,0,0,0,0,0,0,0,0,0,0,0,0,0,0,0,-0.0217,-0.0216,0,-0.0171,-0.0171,-0.017,-0.0131,-0.0131,-0.0131,-0.013,-0.0057,-0.0055,-0.0054,0,0,0,0,0,0,0,0,0,0,0,0,0,-0.0246,-0.0246,-0.0217,-0.0216,-0.0216,-0.0172,-0.0171,-0.017,-0.0131,-0.0131,-0.0131,-0.013,-0.0057,-0.0055,-0.0053,0,0,0,0,0,0,0,0,0,0,0,0,0,-0.022,-0.0246,-0.0217,-0.0192,-0.0189,-0.0172,-0.0171,-0.017,-0.0132,-0.0131,-0.013,-0.013,-0.0058,-0.0056,-0.0053,-0.005,0,0,-0.0046,-0.0045,0,0,0,0,0,0,0,0,-0.0222,-0.0219,-0.0196,-0.0193,-0.019,-0.0157,-0.0154,-0.0129,-0.0132,-0.0153,-0.013,-0.013,-0.0088,-0.0084,-0.0076,-0.0046,-0.0043,-0.0046,-0.0044,-0.0043,-0.0042,0,0,0,0,0,0,0,-0.0224,-0.0221,-0.0198,-0.0195,-0.0192,-0.0175,-0.017,-0.0149,-0.0123,-0.0151,-0.0148,-0.0144,-0.0087,-0.0078,-0.0074,-0.0042,-0.0046,-0.0043,-0.0042,-0.0041,-0.0014,-0.0014,0,0,0,0,0,0,-0.0232,-0.0222,-0.02,-0.0197,-0.0206,-0.0175,-0.017,-0.0168,-0.0124,-0.0117,-0.0145,-0.0143,-0.0083,-0.0077,-0.0071,-0.0075,-0.0043,-0.0041,-0.0039,-0.0013,-0.0014,-0.0015,0,0,0,0,0,0,-0.0233,-0.0231,-0.0201,-0.0209,-0.0204,-0.0175,-0.0173,-0.0167,-0.016,-0.012,-0.0112,-0.0144,-0.0082,-0.0074,-0.0057,-0.0071,-0.004,-0.0038,-0.0012,-0.0013,-0.0014,-0.0075,0,0,0,0,0,0,-0.0234,-0.0231,-0.0237,-0.021,-0.0204,-0.0201,-0.0173,-0.0167,-0.0159,-0.0156,-0.0117,-0.0109,-0.0081,-0.0061,-0.0055,-0.0067,-0.0036,-0.0011,-0.0013,-0.0014,-0.0072,-0.0078,-0.0083,0,0,0,0,0,-0.0235,-0.0247,-0.0237,-0.0235,-0.0211,-0.0202,-0.0198,-0.0174,-0.016,-0.0164,-0.0135,-0.011,-0.0065,-0.006,-0.0052,-0.0064,-0.0011,-0.0012,-0.0014,-0.007,-0.0077,-0.0083,0,0,0,0,0,0,-0.0261,-0.0244,-0.0232,-0.0237,-0.0224,-0.0196,-0.0198,-0.0181,-0.0161,-0.0158,-0.0116,-0.0107,-0.0099,-0.0075,-0.0069,-0.0061,-0.0035,-0.0036,-0.0081,-0.0087,-0.0092,-0.0098,-0.0034,0,0,0,0,0,-0.0271,-0.0276,-0.0253,-0.0258,-0.0255,-0.0228,-0.0222,-0.0206,-0.0184,-0.0175,-0.0147,-0.012,-0.0101,-0.0088,-0.0068,-0.0061,-0.0019,-0.0065,-0.0071,-0.0075,-0.0076,-0.002,-0.0021,-0.002,-0.002,-0.002,0,0,-0.0281,-0.0273,-0.0275,-0.0265,-0.0252,-0.0258,-0.0223,-0.022,-0.0224,-0.017,-0.0168,-0.0138,-0.0104,-0.0098,-0.0092,-0.0078,-0.0055,-0.0078,-0.0082,-0.0079,-0.0022,-0.0022,-0.0022,-0.0021,-0.0021,-0.0021,0,0,-0.0314,-0.03,-0.0319,-0.0313,-0.0302,-0.0285,-0.0287,-0.0263,-0.0252,-0.0245,-0.0209,-0.0187,-0.0159,-0.0135,-0.0119,-0.0143,-0.0087,-0.014,-0.0169,-0.0116,-0.0115,-0.0114,-0.0064,-0.0057,-0.0141,-0.0141,-0.0141,0,-0.0329,-0.0346,-0.0323,-0.034,-0.0339,-0.0301,-0.0319,-0.0306,-0.028,-0.0268,-0.0254,-0.0202,-0.0177,-0.0158,-0.017,-0.0156,-0.0113,-0.0147,-0.0122,-0.012,-0.0118,-0.0066,-0.0058,-0.0144,-0.0144,-0.0144,-0.0143,0,-0.0376,-0.0388,-0.0399,-0.0407,-0.0403,-0.0412,-0.0389,-0.0381,-0.0359,-0.0336,-0.0312,-0.027,-0.0234,-0.0229,-0.0207,-0.0184,-0.0156,-0.0136,-0.0104,-0.0121,-0.0066,-0.0057,-0.0149,-0.0148,-0.0147,-0.0146,0,0,-0.041,-0.043,-0.0434,-0.0446,-0.0438,-0.0438,-0.0443,-0.0429,-0.042,-0.0392,-0.0372,-0.0345,-0.0307,-0.0287,-0.0251,-0.021,-0.0164,-0.0172,-0.0167,-0.012,-0.0041,-0.0053,-0.0043,-0.0134,-0.0133,-0.0132,-0.001,0,-0.0454,-0.0503,-0.0495,-0.0529,-0.0547,-0.0514,-0.0518,-0.0497,-0.0464,-0.0435,-0.0386,-0.0354,-0.0334,-0.0307,-0.0268,-0.0182,-0.0142,-0.0199,-0.0033,-0.0028,-0.0034,-0.0034,-0.0128,-0.0003,-0.0,0.0001,0.0002,0,-0.0502,-0.0527,-0.0577,-0.0584,-0.0587,-0.06,-0.0578,-0.0574,-0.0523,-0.0492,-0.0447,-0.0394,-0.0336,-0.0312,-0.0182,-0.0215,-0.0141,-0.0076,-0.0069,-0.0052,-0.0023,0.002,0.002,0.0018,0.0017,0.0016,0.0015,0,-0.0539,-0.0577,-0.0618,-0.0625,-0.0632,-0.0641,-0.0635,-0.0596,-0.0578,-0.052,-0.0483,-0.041,-0.0351,-0.0259,-0.0136,-0.0149,0.0021,0.0024,0.0082,0.0083,0.0085,0.0083,0.0113,0.0112,0.0112,0.0112,0.0111,0,-0.0583,-0.0614,-0.0644,-0.0667,-0.07,-0.0684,-0.0692,-0.0667,-0.0619,-0.0583,-0.0514,-0.0455,-0.033,-0.0219,-0.0127,0.001,0.0032,0.008,0.0114,0.0056,0.0048,0.0092,0.0088,0.0116,0.0115,0.0114,0.0114,0,-0.0616,-0.064,-0.0687,-0.0714,-0.0724,-0.0745,-0.0736,-0.0727,-0.0673,-0.0618,-0.0596,-0.047,-0.0322,-0.0195,-0.002,0.0031,0.0156,0.0198,0.0132,0.016,0.0179,0.017,0.027,0.027,0.0271,0.0271,0.0272,0,-0.0637,-0.067,-0.0725,-0.0755,-0.0774,-0.0798,-0.0806,-0.0767,-0.074,-0.0619,-0.0586,-0.0435,-0.0343,-0.0096,0.0018,0.0193,0.0206,0.0262,0.0202,0.0172,0.0195,0.0186,0.0177,0.0272,0.0273,0.0273,0.0273,0,-0.0667,-0.0694,-0.073,-0.0797,-0.0829,-0.0847,-0.0848,-0.0829,-0.0753,-0.0706,-0.0548,-0.0414,-0.0246,-0.0084,0.0058,0.0175,0.0217,0.0268,0.0267,0.0211,0.0177,0.0197,0.0188,0.0275,0.0274,0.0274,0.0274,0,-0.0682,-0.0715,-0.0769,-0.0818,-0.0864,-0.0874,-0.0874,-0.0813,-0.0769,-0.0627,-0.0574,-0.0385,-0.0271,-0.0091,0.0038,0.0152,0.0163,0.0175,0.0179,0.0178,0.0099,0.0039,0.0128,0,0,0,0,0,-0.0686,-0.0723,-0.0779,-0.083,-0.0876,-0.0892,-0.0884,-0.0865,-0.0792,-0.0681,-0.0619,-0.0456,-0.0233,-0.0133,-0.002,0.001,0.0152,0.014,0.016,0.0284,0.0282,0.0201,0,0,0,0,0,0,-0.0689,-0.0747,-0.0776,-0.0824,-0.0857,-0.0888,-0.0882,-0.0837,-0.0762,-0.0673,-0.0549,-0.0453,-0.024,-0.0292,-0.0022,0.0014,0.0034,0.0254,0.0255,0.0285,0.0284,0.0282,0.0198,0,0,0,0,0]}]]